Wind_Speed
35 40 41 45 44 44 47 56 50 52 47 42 41 42 44 43 36 37 40 39 34 31 24 23 21 18 15 16 15 18 22 19 17 21 20 21 22 23 26 28 23 24 31 34 34
27 33 38 42 44 39 39 40 42 45 50 52 50 49 46 50 42 44 39 35 29 26 22 19 20 17 15 13 15 19 21 12 13 18 20 23 23 24 27 26 22 25 26 27 29
19 21 23 25 31 34 34 39 42 39 38 38 41 41 42 47 45 43 40 35 25 21 16 18 21 16 17 16 21 21 19 6 9 17 19 23 24 25 24 26 25 26 26 29 28
23 22 20 21 24 26 28 30 31 34 35 36 33 36 33 35 38 40 31 29 25 17 16 18 15 14 16 20 20 15 8 8 9 14 20 24 26 26 22 24 26 27 28 29 30
25 25 26 25 23 23 22 24 28 24 25 27 25 25 25 22 20 32 29 25 23 13 18 14 11 12 12 18 18 12 10 8 12 16 18 23 24 23 18 22 22 22 25 28 28
30 29 28 27 26 24 24 24 24 26 27 27 26 28 28 11 29 25 23 26 23 13 18 12 11 11 14 16 13 12 11 12 15 17 19 22 22 21 20 23 18 19 24 26 26
24 25 27 29 30 29 28 27 27 27 27 28 27 30 25 14 25 21 21 27 18 13 18 15 14 11 12 15 14 13 15 15 17 17 18 22 19 16 18 23 16 19 23 26 26
20 19 20 21 22 26 31 32 31 31 30 29 30 30 19 26 22 19 18 19 21 20 19 17 18 16 15 16 12 15 16 16 16 16 18 21 20 12 15 21 15 20 23 25 25
22 22 24 25 24 23 24 27 32 34 34 34 33 31 21 27 18 21 24 23 25 21 19 15 21 18 16 14 13 15 18 17 13 20 19 20 20 16 16 17 14 19 22 24 24
30 28 26 25 26 25 27 28 27 30 35 37 36 32 23 23 22 26 25 24 26 26 26 24 21 22 19 16 9 17 19 20 22 22 14 13 20 19 16 18 14 17 20 23 24
35 34 32 30 28 26 28 29 31 31 29 29 31 29 28 29 31 26 24 24 25 25 24 21 25 19 18 19 18 19 19 16 17 17 14 12 14 19 14 17 15 16 17 21 22
38 37 37 37 35 34 33 33 33 35 28 25 26 26 32 36 36 32 31 27 24 22 21 24 23 18 22 24 22 24 22 21 20 17 16 18 15 25 16 17 13 12 17 22 21
40 40 39 40 39 39 38 41 34 31 28 28 26 27 29 34 36 32 33 31 30 26 22 25 17 24 26 26 24 23 21 21 22 19 19 20 14 22 22 15 11 14 18 23 20
47 45 45 46 42 41 41 43 38 32 38 29 31 30 27 30 35 33 35 35 35 28 27 28 21 25 26 25 25 24 20 20 23 23 24 22 21 16 22 17 10 12 17 22 20
57 53 50 50 46 44 46 43 40 35 49 40 34 29 28 31 23 30 30 35 35 30 32 18 23 26 25 22 23 15 18 24 27 27 28 20 26 14 22 12 5 14 20 22 20
61 60 58 55 51 50 47 44 40 42 59 45 37 34 31 30 29 27 29 29 23 27 31 26 27 28 24 23 21 15 18 24 25 29 27 12 25 20 17 13 7 13 18 20 18
67 64 63 59 54 54 53 48 48 59 53 47 41 36 34 29 26 26 29 28 26 28 28 25 30 30 30 28 22 23 17 26 30 30 19 11 24 7 13 13 9 13 14 16 15
71 70 66 63 58 57 56 55 60 58 53 50 44 36 38 35 32 28 29 30 30 30 31 25 30 26 25 28 25 24 21 25 25 20 12 18 17 12 7 13 12 10 11 12 8
79 75 71 64 63 60 62 62 66 59 53 47 46 43 40 39 37 35 32 29 27 33 36 27 28 19 24 27 27 28 27 16 20 18 23 23 20 10 5 14 10 8 10 9 4
85 81 74 70 69 66 67 68 64 56 55 49 45 47 46 41 39 38 34 25 23 24 26 26 27 19 25 30 26 31 24 24 26 24 26 22 16 9 14 11 2 6 8 6 1
89 85 78 76 74 74 74 71 63 58 56 53 49 47 47 43 39 34 32 27 23 17 17 16 28 22 28 33 33 33 35 36 29 29 25 22 19 17 15 10 4 9 4 2 2
95 90 87 85 81 80 75 71 68 60 56 52 52 51 51 47 44 42 39 32 22 22 27 19 19 30 30 33 35 32 37 39 36 28 26 26 22 19 16 13 6 6 5 3 4
99 94 91 86 84 82 76 72 70 65 60 59 56 54 50 48 48 48 42 36 33 30 28 26 32 35 39 35 41 43 43 41 44 33 25 28 18 14 18 15 20 6 7 4 4
86 88 81 90 83 78 74 73 74 69 66 62 59 57 56 53 52 51 46 41 39 38 39 36 36 38 45 33 34 40 38 35 30 28 31 28 19 14 17 10 16 9 10 7 4
66 71 67 77 80 76 73 73 72 70 68 64 63 59 58 58 59 52 48 45 48 47 47 46 45 36 30 31 32 32 32 34 38 24 34 27 21 13 18 14 8 16 16 11 9
49 50 52 56 60 57 59 68 70 66 69 65 67 60 63 61 56 55 53 58 56 47 53 43 40 48 52 43 36 36 35 37 34 26 30 31 23 15 22 22 20 18 17 13 10
52 45 47 46 49 50 52 50 55 56 60 60 63 64 64 55 57 56 64 65 64 53 47 34 45 50 52 52 49 48 37 33 30 21 30 30 18 19 29 24 22 17 13 12 10
Wind_Direction
231 237 240 244 250 249 245 247 253 253 255 254 258 261 264 267 268 275 280 291 296 295 289 278 245 247 262 276 284 283 277 293 322 310 318 324 328 325 319 314 325 314 311 319 315
238 239 247 245 245 244 246 248 254 251 250 249 257 265 267 265 267 268 275 284 286 288 283 262 241 245 258 271 276 278 284 294 309 311 314 319 323 319 318 316 313 314 311 314 308
252 255 251 254 253 250 256 259 253 252 254 254 255 266 270 264 264 268 273 275 282 291 292 256 240 248 263 269 263 267 278 301 307 308 310 315 317 313 314 311 312 314 324 315 316
252 256 261 263 262 263 267 264 260 259 256 259 265 266 269 269 268 267 266 267 268 287 276 251 237 253 262 273 279 276 281 309 305 292 301 311 309 313 312 303 311 325 325 319 326
248 250 251 249 250 254 258 258 264 266 259 262 274 271 270 271 270 262 264 259 248 260 261 249 236 246 265 276 278 286 285 296 291 293 298 299 301 306 306 298 308 327 320 323 327
252 251 249 251 253 249 247 248 249 253 259 263 271 282 277 285 252 262 254 240 244 251 252 253 248 243 269 286 288 290 283 284 288 287 293 296 300 308 305 300 320 325 326 331 332
253 255 255 253 254 257 256 250 251 250 252 257 261 269 278 250 260 263 262 239 233 248 251 255 260 260 276 285 292 288 287 289 287 294 301 297 292 307 296 305 321 328 335 338 340
257 256 261 262 261 259 256 256 256 257 259 255 255 258 256 251 262 272 257 251 251 234 239 246 260 267 253 259 278 296 296 290 293 307 302 294 294 300 291 301 319 334 339 340 343
269 271 269 264 259 262 265 262 259 256 255 257 258 259 250 259 268 252 247 243 242 251 261 248 246 258 253 255 267 275 284 295 298 298 299 286 296 316 298 302 324 341 336 340 343
267 267 270 276 270 265 264 264 263 261 256 254 256 258 262 263 245 240 242 242 246 244 244 246 245 246 251 254 265 264 264 274 279 286 291 305 299 314 310 304 323 334 336 339 345
269 270 269 266 265 269 274 272 268 264 265 266 264 254 242 249 249 251 252 248 241 240 245 246 240 243 239 247 253 264 268 270 274 279 296 308 301 304 304 298 307 323 333 338 346
270 270 272 272 269 267 269 268 263 264 267 270 268 255 255 256 255 255 257 254 254 253 240 241 242 236 238 246 253 262 267 271 271 277 292 305 298 299 310 295 317 338 350 347 345
268 266 265 265 266 266 265 264 264 269 271 265 264 256 244 251 254 254 256 260 259 255 253 250 232 230 239 241 247 256 265 272 272 276 276 295 296 299 298 294 316 340 350 349 347
267 263 263 263 260 262 261 266 267 266 261 248 258 258 245 259 254 252 249 252 257 260 253 251 245 246 241 245 248 250 265 251 257 261 278 283 285 270 292 285 316 333 348 346 347
267 264 262 260 258 258 258 258 257 256 260 256 250 252 243 245 253 254 259 255 253 253 252 259 240 241 244 245 244 251 235 233 232 246 264 277 287 275 266 270 298 348 347 340 344
260 261 262 262 258 255 256 255 250 245 255 257 251 251 250 253 250 243 248 252 250 242 240 231 234 236 235 230 240 232 239 234 227 247 262 303 283 276 270 276 351 344 333 334 338
262 259 259 256 253 253 251 247 246 249 255 258 252 249 255 252 249 240 243 251 251 251 251 245 234 240 240 236 247 239 239 243 249 250 274 252 266 263 291 301 327 328 333 338 332
257 257 256 256 250 248 247 243 248 256 254 253 253 242 244 248 249 241 238 239 242 250 253 242 238 239 247 239 243 248 253 273 279 274 253 220 252 267 271 276 329 294 321 339 331
256 253 253 249 247 243 243 243 254 256 258 251 249 250 247 246 244 244 242 243 240 245 250 244 240 223 229 226 235 252 251 292 271 246 228 218 260 291 307 304 300 305 316 336 335
252 252 251 245 244 242 240 251 253 254 253 246 238 242 244 242 242 243 245 238 237 241 253 247 239 221 220 226 235 254 260 263 244 246 230 235 259 262 278 270 267 299 324 310 28
249 249 247 242 240 238 243 251 252 248 245 241 236 235 240 242 236 234 239 234 224 233 247 239 235 207 217 225 225 239 247 253 240 245 243 239 249 253 268 259 232 266 282 271 127
248 246 244 244 240 240 244 250 245 242 240 239 239 234 232 228 230 233 233 235 217 222 237 240 247 232 228 221 224 229 248 249 256 246 232 245 249 253 250 268 197 236 189 166 125
244 243 241 240 239 241 242 240 239 238 236 233 230 230 229 228 227 232 233 226 217 225 231 236 239 246 228 224 225 227 228 247 251 242 232 244 240 246 249 252 228 214 194 133 135
243 239 239 239 237 237 236 235 235 233 233 230 230 225 226 220 220 222 228 223 217 213 231 231 237 240 239 231 239 244 241 247 251 246 232 230 235 245 248 257 205 242 218 153 125
242 242 241 242 235 236 234 232 230 229 231 228 225 226 224 222 213 222 220 219 217 216 218 217 233 235 241 241 242 248 248 247 251 261 241 214 237 238 256 246 266 233 212 183 147
218 230 234 239 238 230 231 232 232 229 227 221 226 220 221 217 217 215 214 210 217 209 223 208 222 231 243 242 236 231 231 225 234 236 207 216 227 217 249 255 226 206 207 197 169
208 201 216 221 231 231 233 231 228 225 226 223 221 217 219 215 218 211 213 210 213 212 213 235 209 222 237 240 243 241 232 224 231 249 248 237 234 214 233 250 261 207 233 215 192
Height
5856 5860 5862 5864 5865 5866 5866 5870 5872 5874 5877 5877 5877 5878 5878 5879 5881 5883 5882 5883 5880 5880 5878 5878 5877 5875 5875 5875 5873 5872 5873 5870 5866 5865 5862 5860 5858 5856 5852 5849 5848 5842 5837 5833 5828
5853 5856 5858 5858 5859 5860 5861 5862 5865 5866 5868 5870 5872 5872 5871 5873 5874 5879 5879 5877 5875 5875 5873 5872 5871 5870 5871 5871 5869 5869 5868 5866 5864 5862 5859 5856 5856 5853 5849 5846 5843 5840 5838 5833 5826
5850 5851 5852 5851 5852 5854 5855 5856 5858 5859 5860 5862 5865 5865 5864 5865 5867 5871 5872 5872 5872 5870 5867 5867 5866 5866 5867 5867 5867 5866 5864 5864 5861 5857 5855 5853 5851 5850 5846 5840 5838 5837 5833 5828 5822
5843 5843 5844 5845 5846 5847 5848 5849 5850 5852 5852 5856 5857 5858 5856 5857 5861 5863 5864 5866 5867 5866 5864 5863 5863 5863 5863 5863 5865 5865 5861 5859 5858 5856 5853 5850 5849 5847 5844 5838 5835 5832 5828 5823 5816
5836 5836 5837 5839 5839 5841 5842 5842 5844 5846 5849 5850 5851 5850 5851 5854 5857 5852 5856 5859 5861 5860 5861 5859 5859 5860 5860 5859 5859 5858 5857 5854 5854 5852 5851 5847 5847 5845 5842 5837 5833 5831 5827 5821 5815
5830 5830 5831 5831 5832 5834 5836 5837 5838 5841 5843 5843 5844 5844 5846 5851 5843 5847 5849 5852 5854 5854 5857 5855 5854 5856 5855 5854 5854 5854 5853 5852 5851 5849 5847 5845 5844 5841 5838 5835 5833 5830 5825 5818 5813
5822 5823 5824 5824 5825 5825 5828 5830 5831 5832 5834 5836 5837 5838 5841 5843 5838 5842 5845 5845 5847 5851 5852 5850 5850 5851 5852 5851 5850 5850 5850 5849 5848 5846 5844 5842 5842 5841 5835 5832 5831 5828 5821 5814 5809
5816 5814 5814 5815 5815 5818 5819 5821 5823 5825 5827 5827 5829 5830 5835 5832 5835 5838 5840 5842 5841 5843 5844 5844 5846 5847 5847 5847 5845 5846 5846 5845 5844 5844 5842 5839 5837 5836 5833 5830 5829 5824 5817 5813 5806
5809 5809 5810 5810 5810 5811 5811 5811 5814 5816 5818 5820 5821 5823 5828 5826 5832 5831 5833 5837 5836 5837 5837 5838 5842 5843 5844 5843 5843 5843 5842 5841 5842 5842 5840 5836 5833 5833 5830 5827 5827 5821 5816 5811 5806
5803 5804 5803 5802 5803 5804 5805 5806 5806 5807 5809 5810 5811 5816 5822 5821 5824 5823 5826 5829 5828 5830 5833 5834 5836 5836 5839 5840 5840 5837 5836 5837 5837 5837 5835 5833 5829 5826 5826 5823 5823 5820 5815 5810 5805
5793 5793 5793 5794 5795 5796 5797 5799 5802 5803 5803 5805 5806 5809 5812 5812 5813 5818 5821 5823 5823 5825 5826 5828 5830 5832 5833 5834 5834 5833 5833 5834 5831 5830 5829 5827 5826 5824 5823 5821 5821 5819 5813 5808 5803
5780 5781 5781 5782 5784 5787 5789 5791 5793 5795 5798 5799 5798 5801 5804 5805 5805 5809 5812 5815 5817 5820 5820 5822 5824 5826 5827 5828 5828 5828 5828 5828 5828 5827 5824 5822 5822 5819 5819 5820 5820 5816 5811 5807 5803
5769 5770 5771 5773 5776 5778 5781 5779 5785 5787 5791 5791 5791 5792 5795 5796 5798 5803 5802 5804 5806 5808 5814 5814 5820 5817 5819 5821 5822 5822 5823 5824 5823 5821 5819 5819 5820 5816 5816 5817 5816 5813 5809 5805 5802
5757 5759 5760 5761 5766 5768 5770 5771 5776 5781 5776 5783 5781 5783 5788 5788 5788 5794 5797 5798 5798 5804 5805 5807 5813 5813 5814 5816 5817 5817 5819 5819 5817 5816 5816 5816 5815 5816 5814 5814 5814 5810 5808 5805 5801
5742 5744 5747 5748 5753 5756 5758 5761 5766 5772 5760 5771 5777 5780 5781 5779 5787 5784 5789 5791 5793 5798 5799 5807 5804 5805 5808 5813 5811 5813 5814 5814 5813 5813 5813 5813 5810 5813 5813 5814 5811 5808 5806 5804 5802
5726 5728 5731 5734 5737 5741 5744 5750 5756 5757 5741 5758 5766 5771 5773 5774 5777 5781 5781 5783 5787 5787 5790 5797 5797 5797 5803 5804 5805 5809 5808 5808 5809 5809 5808 5813 5808 5808 5808 5809 5807 5806 5805 5803 5801
5704 5708 5712 5717 5721 5723 5730 5736 5740 5732 5740 5750 5755 5762 5766 5768 5771 5771 5773 5776 5777 5778 5781 5788 5789 5793 5796 5797 5800 5803 5804 5805 5805 5804 5806 5808 5803 5806 5804 5804 5805 5805 5804 5801 5800
5683 5687 5693 5695 5699 5704 5711 5717 5719 5726 5733 5739 5744 5750 5753 5760 5761 5764 5766 5767 5770 5772 5774 5779 5782 5788 5792 5792 5794 5797 5801 5801 5800 5802 5804 5802 5800 5801 5802 5802 5803 5803 5803 5800 5799
5658 5665 5674 5672 5675 5682 5689 5695 5703 5716 5725 5731 5732 5738 5743 5747 5752 5754 5757 5762 5764 5767 5768 5773 5776 5783 5786 5787 5791 5793 5795 5800 5797 5798 5797 5798 5799 5796 5800 5801 5802 5801 5802 5800 5798
5632 5639 5651 5644 5651 5658 5665 5681 5691 5706 5707 5715 5721 5726 5730 5737 5741 5744 5750 5757 5759 5761 5764 5768 5771 5776 5780 5782 5783 5786 5793 5792 5792 5791 5791 5793 5794 5796 5797 5800 5801 5800 5800 5801 5798
5602 5614 5621 5616 5626 5631 5644 5669 5680 5689 5691 5697 5708 5716 5722 5726 5730 5736 5743 5751 5753 5756 5757 5761 5765 5772 5772 5774 5778 5782 5783 5784 5788 5788 5789 5789 5791 5795 5797 5796 5797 5797 5798 5799 5797
5572 5587 5583 5587 5598 5609 5634 5659 5657 5669 5675 5683 5692 5701 5709 5716 5719 5724 5731 5738 5746 5750 5750 5755 5758 5761 5763 5768 5772 5775 5776 5778 5782 5786 5785 5784 5788 5793 5796 5794 5794 5794 5797 5798 5795
5539 5556 5552 5562 5571 5590 5619 5630 5636 5648 5659 5664 5674 5684 5695 5705 5710 5714 5722 5730 5733 5739 5743 5749 5749 5751 5754 5761 5762 5764 5769 5773 5777 5779 5780 5781 5786 5788 5791 5793 5793 5794 5796 5796 5796
5506 5518 5522 5533 5555 5570 5593 5608 5614 5630 5637 5647 5658 5669 5678 5687 5694 5703 5713 5720 5724 5729 5737 5741 5742 5740 5741 5753 5760 5761 5765 5768 5768 5771 5777 5776 5781 5783 5786 5788 5791 5791 5794 5793 5795
5481 5492 5509 5512 5530 5551 5567 5586 5594 5608 5621 5631 5640 5655 5665 5672 5681 5693 5704 5712 5716 5721 5726 5727 5730 5735 5738 5744 5750 5753 5757 5763 5762 5767 5767 5776 5775 5779 5783 5785 5788 5789 5790 5792 5792
5466 5479 5492 5501 5520 5531 5542 5562 5576 5591 5601 5615 5621 5642 5644 5656 5672 5683 5693 5700 5704 5711 5710 5718 5719 5728 5729 5734 5739 5742 5747 5751 5756 5760 5760 5766 5770 5771 5780 5780 5779 5784 5787 5789 5790
5456 5472 5482 5491 5500 5516 5532 5553 5558 5573 5581 5600 5610 5621 5628 5655 5654 5668 5674 5685 5690 5697 5704 5701 5712 5716 5720 5725 5730 5730 5738 5746 5748 5755 5759 5761 5766 5766 5772 5776 5776 5780 5785 5787 5788